Regional Weather Roundup
Issued by NWS Sterling, VA

Home | Current Version | Previous Version | Text Only | Print | Product List | Glossary Off
Versions: 1 2 3 4 5 6 7 8 9 10 11 12 13 14 15 16 17 18 19 20 21 22 23 24 25 26 27 28

000
ASUS41 KLWX 240910
RWRLWX

REGIONAL WEATHER ROUNDUP
NATIONAL WEATHER SERVICE BALTIMORE MD/WASHINGTON DC
500 AM EDT SAT JUN 24 2017

Note: "FAIR" indicates few or no clouds below 12,000 feet
with no significant weather and/or obstructions to visibility.
 TC=TEMPERATURE CELSIUS

 * =Non NWS site. Station does not report precipitation (e.g. rain,
    snow, etc.), thunder, or fog.

DCZ001-MDZ009-015-VAZ040>042-051-053>054-241000-
WASHINGTON METRO

CITY           SKY/WX    TMP DP  RH WIND       PRES   REMARKS
WASHINGTON NAT LGT RAIN  75  72  90 NW18G36   29.64R FOG
DULLES         CLOUDY    70  67  90 NW12      29.66R
ANDREWS AFB    DRIZZLE   77  73  88 W16G24    29.59S
FT BELVOIR     LGT RAIN  75  70  83 W14       29.64R
QUANTICO       MOCLDY    80  75  84 W12       29.63R
COLLEGE PARK*  CLOUDY    77  72  83 W17G25    29.61R
LEESBURG*      CLOUDY   N/A N/A N/A NW13G20   29.67R
MANASSAS*      MOCLDY    72  70  93 NW16      29.67R
GAITHERSBURG*  CLOUDY    70  69  97 NW10      29.66R

$$

MDZ006>007-011-014-241000-
BALTIMORE METRO

CITY           SKY/WX    TMP DP  RH WIND       PRES   REMARKS
BWI AIRPORT    CLOUDY    76  75  97 S9        29.55F
MD SCIENCE CTR   N/A     78  74  87 MISG      29.55F
MARTIN STATE   CLOUDY    79  77  94 SE12      29.57F
ANNAPOLIS      CLOUDY    78  77  96 S12       29.56F
FORT MEADE*    CLOUDY    73  72  94 W10       29.60S

$$

MDZ012-015-019>023-241000-
MARYLAND EASTERN SHORE

CITY           SKY/WX    TMP DP  RH WIND       PRES   REMARKS
OCEAN CITY     CLOUDY    76  73  91 SW21G31   29.68F
SALISBURY      CLOUDY    80  75  84 SW18G30   29.65F
BAY BRIDGE AP* CLOUDY    79  73  83 S15G21    29.57F
CAMBRIDGE*     CLOUDY    81  75  83 S13G22    29.62F
EASTON*        CLOUDY    83  74  74 SW17G24   29.64F

$$

MDZ017>025-241000-
SOUTHERN MARYLAND

CITY           SKY/WX    TMP DP  RH WIND       PRES   REMARKS
PATUXENT RIVER CLOUDY    82  74  76 S17G29    29.61F
ST INIGOES     MOCLDY    82  75  79 S17G33    29.61F
LEONARDTOWN*   CLOUDY    81  72  74 S14G21    29.63F

$$

MDZ003>005-241000-
NORTH CENTRAL MARYLAND

CITY           SKY/WX    TMP DP  RH WIND       PRES   REMARKS
FREDERICK*     NOT AVBL
HAGERSTOWN APT MOCLDY    70  69  97 W8        29.67S
WESTMINSTER*   RAIN      70  70 100 NW8G18    29.65R

$$

MDZ501>502-241000-
WESTERN MARYLAND

CITY           SKY/WX    TMP DP  RH WIND       PRES   REMARKS
OAKLAND*       NOT AVBL
CUMBERLAND*    PTCLDY    72  64  78 W8        29.77S

$$

VAZ025>031-241000-
SHENANDOAH VALLEY

CITY           SKY/WX    TMP DP  RH WIND       PRES   REMARKS
WINCHESTER*    CLOUDY    68  64  88 W6        29.71R
FRONT ROYAL*   CLOUDY    70  68  94 NW7       29.71R
LURAY*         MOCLDY    72  64  78 NW15G21   29.73R
NEW MARKET*    PTCLDY    67  65  94 CALM      29.74R
STAUNTON*      CLEAR     68  64  86 NW6       29.79R
WAYNESBORO*    CLOUDY    68  65  89 CALM      29.80R

$$

WVZ021-048>050-054>055-241000-
EASTERN WEST VIRGINIA PANHANDLE

CITY           SKY/WX    TMP DP  RH WIND       PRES   REMARKS
MARTINSBURG    PTCLDY    70  65  84 VRB6      29.68R
PETERSBURG*    CLOUDY    70  64  81 W7        29.78R

$$

VAZ036>039-050-241000-
CENTRAL FOOTHILLS

CITY           SKY/WX    TMP DP  RH WIND       PRES   REMARKS
CHARLOTTESVILL CLOUDY    76  70  82 W3        29.72R
CULPEPER*      CLOUDY    74  69  84 NW10G18   29.70R
ORANGE*        CLOUDY    73  70  88 W10       29.70R
GORDONSVILLE*  CLOUDY    76  71  85 W6        29.70R
WARRENTON*     CLOUDY    74  67  76 NW17G28   29.68R

$$

VAZ055>057-241000-
NORTH AND CENTRAL PIEDMONT

CITY           SKY/WX    TMP DP  RH WIND       PRES   REMARKS
FREDERICKSBRG* MOCLDY    80  74  83 W15G22    29.62R
STAFFORD*      MOCLDY    78  75  90 W12G21    29.68R

$$

NCZ024-NYZ072-PAZ021-071-VAZ022-071-241000-
OTHER REGIONAL OBSERVATIONS

CITY           SKY/WX    TMP DP  RH WIND       PRES   REMARKS
NEW YORK CITY  CLOUDY    73  71  93 W7        29.63S
PHILADELPHIA   LGT RAIN  77  73  87 SW9       29.57F
PITTSBURGH     MOCLDY    67  66  97 W9        29.78R
ROANOKE        PTCLDY    69  63  81 W5        29.87R
RICHMOND       CLOUDY    82  74  76 SW16G31   29.66S
RALEIGH        CLOUDY    77  74  90 W13G26    29.84S

$$

ANZ530>537-241000-
MARINE OBSERVATIONS

STATION/POSITION TIME  TEMP    WIND        PRES
                       AIR SEA DIR/SP/G
                 (UTC) (F)     (DEG/KT/KT) (MB)
THOMAS PT LIGHT  0900   80 78  190/ 22/ 24   N/A
BALT KEY BRIDGE  0848   78     170/ 13/ 15 1000.2F
COVE POINT       0848   81     210/ 22/ 31 1003.2F
LEWISETTA        0848   82 79  240/ 21/ 28 1003.3F
SOLOMONS ISLAND  0848   81 77  200/ 18/ 26   N/A
PINEY POINT      0848          230/ 22/ 23   N/A

$$





USA.gov is the U.S. government's official web portal to all federal, state and local government web resources and services.